This is the latest recevied weather packets stored in our database for station/object N1YZ. If no packets are shown the sender has not sent any weather packets the latest 10 day(s).
| Time | Temp. | Humidity | Pressure | Rain* | Wind** | Luminosity | Snow |
|---|---|---|---|---|---|---|---|
| 1777910461 | 21.67° C | 51% | 1037 hPa | 0 mm | - | 60 W/m² | - |
| 1777910157 | 21.67° C | 53% | 1036.8 hPa | 0 mm | - | 51 W/m² | - |
| 1777909855 | 21.67° C | 54% | 1037.1 hPa | 0 mm | - | 41 W/m² | - |
| 1777909551 | 21.67° C | 52% | 1037 hPa | 0 mm | - | 46 W/m² | - |
| 1777909249 | 21.11° C | 57% | 1036.9 hPa | 0 mm | - | 87 W/m² | - |
| 1777908947 | 21.11° C | 62% | 1037 hPa | 0 mm | - | 37 W/m² | - |
| 1777908645 | 21.11° C | 60% | 1036.9 hPa | 0 mm | - | 102 W/m² | - |
| 1777908341 | 21.11° C | 57% | 1036.7 hPa | 0 mm | - | 381 W/m² | - |
| 1777908037 | 21.11° C | 59% | 1036.8 hPa | 0 mm | - | 249 W/m² | - |
| 1777907733 | 21.11° C | 55% | 1036.9 hPa | 0 mm | - | 198 W/m² | - |
| 1777907433 | 21.11° C | 58% | 1036.9 hPa | 0 mm | - | 269 W/m² | - |
| 1777907131 | 20.56° C | 59% | 1037 hPa | 0 mm | - | 261 W/m² | - |
| 1777906829 | 20.56° C | 60% | 1037 hPa | 0 mm | - | 109 W/m² | - |
| 1777906526 | 20° C | 65% | 1036.9 hPa | 0 mm | - | 436 W/m² | - |
| 1777906221 | 19.44° C | 60% | 1037 hPa | 0 mm | - | 401 W/m² | - |
| 1777905918 | 20° C | 61% | 1037 hPa | 0 mm | - | 187 W/m² | - |
| 1777905615 | 20° C | 60% | 1037 hPa | 0 mm | - | 65 W/m² | - |
| 1777905312 | 20° C | 63% | 1037.2 hPa | 0 mm | - | 63 W/m² | - |
| 1777905010 | 20.56° C | 59% | 1037.2 hPa | 0 mm | - | 142 W/m² | - |
| 1777904707 | 20.56° C | 58% | 1037.2 hPa | 0 mm | - | 386 W/m² | - |
| 1777904403 | 20° C | 62% | 1037.3 hPa | 0 mm | - | 377 W/m² | - |
| 1777904100 | 17.78° C | 67% | 1037.2 hPa | 0 mm | - | 364 W/m² | - |
| 1777903797 | 16.67° C | 70% | 1037.2 hPa | 0 mm | - | 335 W/m² | - |
| 1777903493 | 16.11° C | 70% | 1037.4 hPa | 0 mm | - | 27 W/m² | - |
| 1777903190 | 16.11° C | 71% | 1037.4 hPa | 0 mm | - | 27 W/m² | - |
* Rain latest hour (hover to see other rain measurements)
** Current wind speed in m/s (hover to see current wind gust speed)